x

Lahaina / West Maui Weather Station

5:45 - Tue 19th Sep 2017 All times are HST. -10 hours from GMT.

  • Wind
    14mph, 23mph gusts
  • Ar Temp 81°f
  • Sea Pressure 1014.2mb
  • Lahaina / West Maui
  • Lahaina / West Maui

More Historic Weather Station data

Upgrade to MSW Pro to gain access to the past 30 days of data for over 8000 Wavebouys and Weather Stations around the globe.

Join

Comparision Forecast

View Surf forecast
   
Ter 09/19 5:45 14 23 mph 1014.2mb 81f
4:45 17 25 mph 1013.9mb 84f
3:45 17 28 mph 1013.5mb 86f
2:45 17 30 mph 1013.9mb 86f
1:45 21 28 mph 1014.6mb 86f
12:45 17 31 mph 1014.6mb 88f
11:45 22 32 mph 1015.2mb 86f
10:45 17 32 mph 1015.6mb 86f
9:45 18 28 mph 1015.6mb 84f
8:45 15 29 mph 1015.6mb 82f
7:45 18
mph
1015.2mb 81f
6:45 9
mph
1014.9mb 75f
6:00 12
mph
1014.9mb 75f
Seg 09/18 5:46 15 28 mph 1015.2mb 81f
4:45 17
mph
1014.9mb 82f
3:45 16 28 mph 1014.9mb 84f
2:45 18 31 mph 1014.9mb 84f
1:45 15 27 mph 1015.2mb 86f
12:45 17 30 mph 1016.3mb 84f
11:45 15 27 mph 1016.6mb 84f
10:45 16 30 mph 1016.9mb 82f
9:45 16
mph
1017.3mb 81f
8:45 13 24 mph 1017.3mb 75f
7:45 14 27 mph 1016.6mb 77f
6:45 8
mph
1016.6mb 75f
6:00 16 29 mph 1015.6mb 75f
Dom 09/17 5:45 21 29 mph 1015.6mb 81f
4:45 16 29 mph 1015.2mb 84f
3:45 18 28 mph 1015.6mb 82f
2:45 22 30 mph 1015.6mb 84f
1:45 18 30 mph 1015.9mb 86f
12:45 14 29 mph 1017.3mb 82f
11:45 17 25 mph 1017.6mb 86f
10:45 14 24 mph 1018mb 84f
9:45 16 28 mph 1018.3mb 84f
8:45 12
mph
1018.3mb 79f
7:45 14 24 mph 1017.6mb 77f
6:45 14 20 mph 1016.9mb 77f
6:00 13 21 mph 1016.9mb 77f
Sáb 09/16 5:45 16 28 mph 1015.2mb 82f
4:45 18 30 mph 1014.9mb 84f
3:45 15 28 mph 1014.9mb 84f
2:45 17 29 mph 1014.9mb 84f